Tracking 19562 objects as of 22-Mar-2019
HD Live streaming from Space Station
objects crossing your sky now

FENGYUN 1C DEB

Track FENGYUN 1C DEB now!
10-day predictions


NORAD ID: 31626
Int'l Code: 1999-025CAG
Perigee: 777.6 km
Apogee: 819.2 km
Inclination: 101.3 °
Period: 100.7 minutes
Semi major axis: 7169 km
RCS: 0.0152 m2 (small)
Launch date: May 10, 1999
Source: People's Republic of China (PRC)
Launch site: Taiyaun Space Center, China (TSC)

Note: This is SATELLITE DEBRIS
aabbcc
Your satellite tracking list
Your tracking list is empty




NASA's NSSDC Master Catalog

Two Line Element Set (TLE):
1 31626U 99025CAG 19080.30996390  .00001139  00000-0  46453-3 0  9999
2 31626 101.3109 264.8131 0028987 272.8962  86.8894 14.30145737617372
Source of the keplerian elements: AFSPC